CST,Max TemperatureF,Mean TemperatureF,Min TemperatureF,Max Dew PointF,MeanDew PointF,Min DewpointF,Max Humidity, Mean Humidity, Min Humidity, Max Sea Level PressureIn, Mean Sea Level PressureIn, Min Sea Level PressureIn, Max VisibilityMiles, Mean VisibilityMiles, Min VisibilityMiles, Max Wind SpeedMPH, Mean Wind SpeedMPH, Max Gust SpeedMPH,PrecipitationIn, CloudCover, Events, WindDirDegrees
2013-1-1,68,58,48,66,56,43,100,90,80,30.18,30.00,29.89,10,6,1,22,13,26,2.48,8,Rain-Thunderstorm,347
2013-1-2,48,45,41,45,40,37,93,88,82,30.30,30.23,30.15,10,8,4,21,11,24,0.04,7,Rain,357
2013-1-3,55,47,38,37,35,31,92,68,44,30.40,30.34,30.28,10,9,7,18,11,24,0.00,6,,13
2013-1-4,49,46,43,38,35,33,76,66,56,30.49,30.40,30.34,10,10,10,15,10,18,0.01,8,Rain,32
2013-1-5,46,45,43,45,42,39,100,92,83,30.37,30.29,30.25,10,7,2,15,9,20,0.54,8,Rain,19
2013-1-6,58,50,41,45,42,39,100,78,55,30.33,30.28,30.24,10,9,2,20,11,23,0.00,4,,5
2013-1-7,57,47,37,43,40,38,93,72,51,30.32,30.22,30.10,10,10,7,15,8,20,0.00,4,,68
2013-1-8,63,58,52,61,55,44,100,83,66,30.12,30.03,29.92,10,8,2,30,14,39,0.25,7,Rain,93
2013-1-9,66,63,60,66,63,59,100,97,93,30.05,29.99,29.92,10,6,1,29,15,37,3.86,7,Rain-Thunderstorm,104
2013-1-10,66,58,50,63,59,49,100,87,73,30.10,30.04,29.96,10,7,2,25,6,36,0.47,6,Rain-Thunderstorm,211
2013-1-11,70,57,43,70,56,44,100,77,53,30.06,29.98,29.92,10,6,0,15,6,22,0.04,4,Fog-Rain,123
2013-1-12,75,72,69,70,69,68,100,92,84,29.94,29.88,29.78,8,4,1,29,15,37,0.02,8,Rain,155
2013-1-13,71,58,44,69,51,41,100,93,86,30.11,29.95,29.80,10,8,2,24,14,31,0.08,8,Rain,329
2013-1-14,46,43,39,43,40,37,96,89,82,30.20,30.12,30.06,10,8,1,22,13,29,0.05,8,Rain,21
2013-1-15,42,39,35,39,36,33,100,91,82,30.13,30.08,30.01,10,7,1,20,12,26,0.24,8,Rain,360
2013-1-16,52,43,33,37,32,26,92,67,41,30.27,30.20,30.12,10,10,8,21,10,29,0.02,5,Rain,319
2013-1-17,60,45,29,35,30,26,92,61,30,30.47,30.37,30.27,10,10,10,15,6,20,0.00,0,,326
2013-1-18,60,48,35,40,36,26,100,66,31,30.55,30.45,30.38,10,8,1,14,4,18,0.00,0,,72
2013-1-19,64,50,35,49,43,35,100,78,56,30.38,30.30,30.23,10,6,0,12,5,17,0.00,0,Fog,119
2013-1-20,69,55,40,51,45,41,100,74,48,30.29,30.21,30.14,10,5,0,14,3,17,0.00,0,Fog,97
2013-1-21,70,55,40,52,45,41,100,70,40,30.25,30.18,30.15,10,4,0,8,1,10,0.00,0,Fog,28
2013-1-22,67,55,43,48,45,40,100,74,48,30.35,30.29,30.22,10,8,1,9,5,14,0.00,0,,101
2013-1-23,72,58,44,57,50,45,100,77,53,30.37,30.31,30.26,10,5,0,17,7,22,0.00,1,Fog,141
2013-1-24,72,63,53,63,58,53,100,87,73,30.31,30.24,30.19,10,6,0,16,7,20,0.00,4,Fog,186
2013-1-25,76,66,55,64,59,55,100,79,58,30.22,30.16,30.11,10,7,0,20,8,25,0.00,3,Fog,189
2013-1-26,76,64,52,65,57,54,100,79,58,30.22,30.17,30.14,10,4,0,16,6,21,0.00,5,Fog,146
2013-1-27,76,67,57,63,61,57,97,81,64,30.18,30.13,30.10,10,10,9,22,12,28,0.00,6,,137
2013-1-28,76,71,66,66,65,64,93,81,69,30.15,30.08,30.03,10,10,7,18,12,23,0.00,8,,153
2013-1-29,77,73,68,70,68,66,93,84,74,30.01,29.84,29.68,10,7,2,30,18,39,0.00,8,Rain,160
2013-1-30,66,53,39,55,39,24,97,62,26,30.23,29.93,29.74,10,9,2,31,13,43,0.12,5,Rain-Thunderstorm,301
2013-1-31,64,49,33,40,34,26,100,64,27,30.33,30.27,30.22,10,10,2,18,5,23,0.00,0,,198